Miscellaneous Local Product
Issued by NWS Hastings, NE

Home | Current Version | Previous Version | Text Only | Print | Product List | Glossary On
Versions: 1 2 3 4 5 6 7 8 9 10 11 12 13 14 15 16 17 18 19 20 21 22 23 24 25 26 27 28 29 30 31 32 33 34 35 36 37 38 39 40 41 42 43 44 45 46 47 48 49 50
000
AXUS43 KGID 241102
MISGRI

GID CWA HOURLY WEATHER ROUNDUP
NATIONAL WEATHER SERVICE HASTINGS NE
600 AM CDT MON APR 24 2017

NOTE: "FAIR" INDICATES FEW OR NO CLOUDS BELOW 12,000 FEET WITH NO
SIGNIFICANT WEATHER AND/OR OBSTRUCTIONS TO VISIBILITY.

...SOUTH CENTRAL NEBRASKA...

CITY           SKY/WX    TMP DP  RH WIND       PRES   REMARKS
GRAND ISLAND   CLOUDY    51  35  54 S20G31    29.65F
HASTINGS       PTCLDY    52  33  48 S20G30    29.65F
KEARNEY        CLOUDY    54  32  43 S25G32    29.61F
ORD            MOCLDY    52  33  48 S13       29.61F
YORK           PTCLDY    50  36  57 S20G26    29.70F
AURORA         PTCLDY    52  33  48 S22G28    29.67F
LEXINGTON      CLOUDY    51  34  52 SE18      29.57F
HOLDREGE       CLOUDY    51  33  49 S22G29    29.60F
HEBRON         PTCLDY    50  37  59 S18       29.74F

...NEBRASKA PANHANDLE...

CITY           SKY/WX    TMP DP  RH WIND       PRES   REMARKS
CHADRON        PTCLDY    41  39  93 W10       29.56F
ALLIANCE       PTCLDY    43  39  86 W8        29.57S
SCOTTSBLUFF    CLOUDY    52  39  61 W7        29.61F
SIDNEY         CLOUDY    52  39  61 NW22      29.61R

...WESTERN AND NORTH CENTRAL NEBRASKA...

CITY           SKY/WX    TMP DP  RH WIND       PRES   REMARKS
VALENTINE      CLOUDY    53  33  46 S9        29.53F
AINSWORTH      CLOUDY    51  38  61 S14       29.55F
ONEILL         CLOUDY    53  34  47 S16       29.60F
BROKEN BOW     CLOUDY    51  34  52 S15G25    29.57F
IMPERIAL       PTCLDY    41  36  82 NE3       29.53R
NORTH PLATTE   CLOUDY    49  36  61 SE10      29.55S
MCCOOK         CLOUDY    51  36  56 S10       29.53F

...EASTERN NEBRASKA...

CITY           SKY/WX    TMP DP  RH WIND       PRES   REMARKS
NORFOLK        CLOUDY    51  34  52 S20G30    29.67F
SO SIOUX CITY  PTCLDY    51  37  58 SE14      29.74F
TEKAMAH        PTCLDY    49  38  65 S10       29.77S
COLUMBUS       CLOUDY    52  34  50 S16G24    29.72S
ALBION         MOCLDY    51  35  55 SE10      29.67F
OMAHA EPPLEY   CLOUDY    54  36  50 S21       29.78F
OFFUTT AFB     CLOUDY    51  36  55 SE6       29.79F
MILLARD        CLOUDY    54  38  54 SE13G20   29.78F
LINCOLN        CLOUDY    51  37  58 S15       29.76F
NEBRASKA CITY  CLOUDY    50  32  50 S17       29.82F
BEATRICE       CLOUDY    52  38  58 S13G22    29.78S
FALLS CITY     CLOUDY    44  38  79 SE9       29.85F

...NORTHERN KANSAS...

CITY           SKY/WX    TMP DP  RH WIND       PRES   REMARKS
GOODLAND       CLOUDY    50  39  66 S16       29.52F
HILL CITY      CLOUDY    53  37  54 S30G41    29.58F
NORTON         SUNNY     52  30  43 S17G24    29.57F
PHILLIPSBURG   CLEAR     54  34  47 SE12G17   29.64S
SMITH CENTER   CLEAR     52  36  54 SE22G29   29.66F
HAYS           CLOUDY    54  35  48 S24G35    29.66F
RUSSELL        CLOUDY    53  35  50 S31G40    29.67F
CONCORDIA      CLOUDY    49  38  65 S17G25    29.74F
SALINA         CLOUDY    53  38  56 S17G25    29.78F
TOPEKA         CLOUDY    50  39  66 S5        29.88F



USA.gov is the U.S. government's official web portal to all federal, state and local government web resources and services.